Weather in Perekhlyay

Russia / Kemerovo Oblast     54°52′46″N   86°34′52″E
temp.,
°C
wind,
m/s
gust,
m/s
humid.,
%
clouds,
%
prec.,
mm/h
press.,
hPa
HPBL,
m
8 august, mon
mon801:00+15nne118077 0.0 100811
04:00+13nne118117 0.0 100811
07:00+14ne11795 0.0 100915
10:00+20ene12575 0.0 1009419
13:00+25nne23431 0.0 10091232
16:00+27nne1335100 0.0 10082521
19:00+23nne611524 0.0 1008565
22:00+17n347654 0.0 100969
9 august, tue
tue901:00+16nne3372100 0.0 100939
04:00+15n227297 0.0 100831
07:00+15se117631 0.0 100925
10:00+21ese235965 0.0 1010491
13:00+26ese334816 0.0 10091180
16:00+27e333838 0.0 10081874
19:00+24ne485093 0.0 1009414
22:00+17ne35795 0.1 101071
10 august, wed
wed1001:00+15ne34805 0.2 101063
04:00+15nne337615 0.0 100937
07:00+15nne25754 0.0 1010102
10:00+23ne47460 0.0 1010686
13:00+26ne44354 0.0 10091769
16:00+27nne44340 0.0 10092102
19:00+24nne47470 0.0 1009493
22:00+17nne34760 0.0 101049
11 august, thu
thu1101:00+15n33811 0.0 100942
04:00+14n34861 0.0 100846
07:00+15ne23756 0.0 100764
10:00+22ene22545 0.0 1008399
13:00+27ene3340100 0.0 10071048
16:00+28sse2237100 0.0 10071614
19:00+26sw2354100 0.0 1006112
22:00+20ene3769100 0.0 1007121
12 august, fri
fri1201:00+17se2277100 0.2 100713
04:00+17ne1192100 1.5 100716
07:00+17ene2294100 2.3 100662
10:00+21ese1275100 0.0 1006389
13:00+24ssw1267100 2.8 1006267
16:00+24sse2258100 1.4 1006546
19:00+22ssw3472100 2.3 1005211
22:00+18se369351 2.6 1006143